Location: Mount Cross
(36.6390°N, 79.4878°W)
Time: 01:18:38
(UTC+00:00)

SR - Pass Details

Date: 31 March 2023
Orbit: 580 x 867 km, 66.7° (Epoch: 08 June)

Event Time Altitude Azimuth Distance (km) Brightness Sun altitude
Rises 06:18:44 0° 224° (SW) 3,021 - -47.2°
Reaches altitude 10° 06:21:14 10° 232° (SW) 2,063 - -47.0°
Maximum altitude 06:25:34 39° 302° (WNW) 946 - -46.7°
Drops below altitude 10° 06:29:40 10° 11° (NNE) 1,949 - -46.4°
Exits shadow 06:31:38 - 19° (NNE) 2,697 ? -46.2°
Sets 06:31:59 0° 20° (NNE) 2,831 ? -46.2°
